Location: Stara Lesna
(49.1528°N, 20.2911°E)
Time: 06:35:14
(UTC+02:00)

ATLAS 3B R/B - Pass Details

Date: 21 September 2019
Orbit: 1028 x 1166 km, 63.8° (Epoch: 07 October)

Event Time Altitude Azimuth Distance (km) Brightness Sun altitude
Exits shadow 04:21:08 34° 242° (WSW) 1,636 3.1 -20.0°
Maximum altitude 04:24:11 68° 315° (NW) 1,106 2.7 -19.6°
Drops below altitude 10° 04:30:49 10° 39° (NE) 2,833 5.9 -18.6°
Sets 04:33:28 0° 42° (NE) 3,790 6.8 -18.2°
